Temperature
11 11 12 12 12 12 12 12 11 11 11 11 11 11 11 11 11 11 10 10 10 10 10 10 10 10 10 10 10 10 10 10 10 10 10 9 9 9 9 10 9 9 9
11 11 11 11 11 11 11 11 11 11 11 11 11 11 11 11 10 10 10 10 10 10 10 10 10 10 10 9 9 9 9 9 9 9 9 9 9 9 9 9 9 9 9
11 11 11 11 11 11 11 11 11 11 11 11 11 11 10 10 10 10 10 10 10 10 10 10 9 9 9 9 9 9 9 9 9 9 9 9 9 8 8 8 9 8 8
11 11 11 11 11 11 11 11 11 11 11 10 10 10 10 10 10 10 9 9 9 9 9 9 9 9 9 9 9 9 8 8 8 8 8 8 8 8 8 8 8 8 8
10 10 10 10 10 10 10 10 10 10 10 10 10 10 10 10 9 9 9 9 9 9 9 9 9 9 8 8 8 8 8 8 8 8 8 8 8 8 8 8 7 7 7
10 10 10 10 10 10 10 10 10 10 9 9 9 9 9 9 9 9 9 8 8 8 8 8 8 8 8 8 8 8 8 8 8 7 7 7 7 7 7 7 7 7 7
10 10 10 10 9 10 9 9 9 9 9 9 9 9 9 8 8 8 8 8 8 8 8 8 8 8 8 7 7 7 7 7 7 7 7 7 7 7 7 7 7 7 7
9 9 9 9 9 9 9 9 9 9 8 8 8 7 7 7 8 7 7 7 8 7 7 7 7 7 7 7 7 7 7 7 7 7 7 7 6 6 6 6 6 6 6
9 9 9 9 9 9 9 8 8 8 8 8 7 7 7 6 7 7 7 7 7 7 7 7 7 7 7 7 7 7 7 7 7 7 6 6 6 6 6 6 6 6 6
8 8 8 8 8 8 8 8 8 8 8 8 7 7 7 6 6 6 6 6 6 6 6 6 6 6 6 6 6 7 7 7 7 6 6 6 6 6 6 6 6 5 5
8 8 8 8 8 8 8 8 8 7 7 7 7 7 6 6 6 6 5 6 6 6 6 6 6 6 6 6 6 6 6 6 6 6 6 6 6 6 5 5 5 5 5
7 7 8 8 8 8 8 8 7 7 7 7 6 6 6 6 6 5 5 5 5 5 5 5 5 5 6 6 6 6 6 6 6 5 6 6 5 5 5 5 5 5 5
7 7 7 7 7 7 7 7 7 7 7 6 6 6 6 5 5 5 5 4 4 4 4 5 5 5 5 5 5 5 5 5 5 5 5 5 5 5 5 5 5 5 5
7 7 7 7 7 7 7 7 7 7 6 6 6 5 5 5 5 5 4 4 4 3 3 4 4 4 4 5 5 5 5 5 5 5 5 5 5 5 5 4 4 4 4
6 6 6 6 6 6 6 6 6 6 6 6 5 5 5 5 4 4 4 4 3 3 3 3 4 4 4 4 4 4 4 4 4 4 4 4 4 4 4 4 4 4 4
6 6 6 6 6 6 6 6 6 5 5 5 5 5 4 4 4 4 4 4 3 3 3 3 3 3 3 3 4 4 4 4 4 4 4 4 4 4 4 4 4 4 4
6 6 6 5 5 5 5 5 5 5 5 5 4 4 4 4 4 4 3 3 3 3 3 3 3 3 3 3 3 3 3 3 3 3 3 3 4 3 3 3 3 3 3
5 5 5 5 5 5 5 5 5 5 4 4 4 4 4 3 3 3 3 3 3 2 2 2 3 3 2 3 3 3 3 3 3 3 3 3 3 3 3 3 3 3 3
5 5 5 4 4 4 4 4 4 4 4 4 4 4 4 3 3 3 3 2 2 2 2 2 2 2 2 2 2 2 2 2 2 2 2 2 2 2 2 2 2 2 2
4 4 4 4 4 4 4 4 4 4 4 4 4 3 3 3 3 3 2 2 2 2 2 2 2 2 2 2 1 2 2 2 2 2 2 2 2 2 2 2 2 2 2
4 4 4 4 4 4 3 3 3 3 3 3 3 3 3 2 2 2 2 2 2 1 1 1 1 1 1 1 1 1 1 1 1 1 1 1 1 1 1 1 1 1 1
3 3 3 3 3 3 3 3 3 3 3 3 3 2 2 2 2 2 2 1 1 1 1 1 1 1 1 0 0 0 0 -0 -0 0 0 1 1 1 1 1 1 0 0
3 3 3 3 3 3 3 3 2 2 2 2 2 2 2 1 1 1 1 1 1 1 1 0 0 0 0 0 -0 -0 -0 -1 -1 -1 -0 0 0 0 0 0 0 0 0
2 2 2 2 2 2 2 2 2 2 2 2 2 2 1 1 1 1 1 1 1 0 0 0 0 -0 -0 -0 -1 -1 -1 -1 -1 -1 -1 -1 -1 -1 -0 -0 -0 -0 -0
2 2 2 2 2 2 2 2 1 1 1 1 1 1 1 1 1 0 0 0 0 0 -0 -0 -0 -0 -1 -1 -1 -1 -1 -2 -2 -1 -2 -2 -2 -1 -1 -1 -1 -1 -1
1 1 1 1 1 1 1 1 1 1 1 1 1 1 0 0 0 -0 -0 -0 -0 -0 -0 -0 -0 -1 -1 -1 -1 -2 -2 -2 -2 -2 -2 -2 -2 -2 -2 -1 -1 -1 -1
Wind_Speed
2 2 2 2 2 2 2 1 1 1 1 1 1 2 2 2 2 2 3 3 2 1 1 2 2 2 2 3 3 4 4 4 4 5 5 6 6 6 6 7 7 8 8
3 2 2 2 2 2 2 1 1 1 1 1 1 2 2 2 3 3 3 3 1 1 0 2 2 2 2 3 3 3 4 5 5 6 6 6 6 7 7 7 8 8 8
3 3 2 1 1 2 2 1 1 2 1 1 1 1 2 3 2 2 3 2 2 1 0 1 2 3 3 3 4 4 4 5 5 5 6 6 7 7 7 7 8 8 8
4 3 2 2 2 2 2 2 1 1 1 1 1 1 1 2 2 1 1 2 2 2 1 1 2 3 4 4 5 5 5 6 6 6 6 6 7 8 7 8 8 8 8
4 3 2 2 2 1 1 2 2 2 1 1 1 1 1 1 1 1 1 2 2 2 2 0 1 2 3 4 4 5 5 6 6 7 7 7 7 8 8 8 8 8 7
4 4 3 3 3 2 1 1 2 2 1 1 2 2 1 1 0 1 1 2 2 2 1 1 1 1 3 4 5 5 6 7 7 7 7 7 7 8 8 8 8 7 8
5 4 2 3 3 2 1 2 2 2 1 1 2 1 2 1 0 0 1 2 2 1 2 1 1 1 2 3 5 5 6 7 8 8 8 7 8 8 8 8 8 8 9
6 4 3 3 3 2 2 2 3 2 1 1 1 1 0 1 2 1 0 1 1 1 1 1 1 1 1 1 3 5 7 8 9 9 8 8 9 8 8 9 9 9 9
6 5 4 3 3 3 3 3 3 3 2 0 0 2 1 1 1 1 1 1 1 0 0 0 0 1 1 2 2 4 6 8 9 9 9 9 8 9 9 9 9 9 10
6 6 5 4 3 3 3 3 3 3 3 2 0 0 1 1 1 1 2 1 1 1 1 0 1 0 1 1 2 4 6 8 8 9 9 9 9 9 9 9 9 10 10
5 6 6 5 4 3 3 3 2 2 3 3 2 0 1 1 1 1 2 2 2 2 1 1 0 0 1 1 2 5 7 7 8 9 9 9 10 10 10 9 9 10 10
3 4 5 5 4 4 4 4 4 3 3 2 2 1 1 1 1 1 2 2 2 3 2 1 0 0 1 2 3 5 6 7 8 9 9 9 10 10 10 10 10 10 10
3 4 4 4 4 4 4 3 4 4 3 3 3 2 2 1 1 1 1 2 2 2 1 1 1 0 1 2 3 6 7 8 8 9 9 9 10 10 10 10 10 11 11
4 4 4 4 4 4 4 4 3 4 3 3 3 3 2 1 1 1 1 1 2 2 2 3 2 1 2 2 4 6 6 8 8 9 9 9 9 9 9 10 10 11 11
4 5 5 4 4 4 4 4 3 4 4 3 3 3 2 2 2 1 1 1 2 3 3 2 2 2 3 3 5 5 5 8 8 8 8 8 8 8 8 8 9 9 10
4 5 5 5 5 4 5 4 3 3 4 3 3 3 3 2 2 1 2 1 2 3 3 2 2 2 3 4 6 6 6 8 8 8 8 8 8 7 7 8 8 9 10
5 6 5 5 5 5 5 5 4 4 5 4 4 4 4 3 2 2 2 2 2 2 4 4 2 2 2 3 5 5 6 5 6 7 8 8 8 7 8 8 8 9 9
4 5 5 5 5 5 5 5 5 4 5 5 5 4 3 2 2 2 1 2 2 2 2 4 3 2 2 3 3 4 5 6 6 7 8 8 8 7 8 8 8 9 10
4 4 5 5 5 5 5 5 5 4 4 5 5 5 4 3 3 2 2 2 2 2 2 3 3 2 2 3 3 4 4 4 6 6 6 7 8 9 9 9 9 10 10
4 4 5 4 4 4 4 4 4 4 4 4 4 4 4 4 4 3 3 2 2 1 1 2 3 3 3 2 2 3 4 4 4 4 5 7 8 9 9 9 10 10 10
4 4 4 4 3 4 4 4 5 5 4 4 4 4 4 4 5 4 3 3 2 2 2 2 3 3 3 2 3 3 4 4 4 2 3 5 5 5 6 8 9 10 10
4 4 4 4 4 3 4 5 4 4 4 4 4 3 3 4 4 4 4 4 4 3 3 3 3 4 4 3 2 3 3 4 4 3 3 5 3 4 4 5 8 10 10
4 4 4 4 4 4 5 5 5 3 4 4 4 3 3 3 3 3 3 4 3 4 4 4 4 5 4 3 3 3 3 4 5 4 3 5 3 4 5 7 10 10 11
4 4 4 4 4 4 6 6 5 3 3 3 4 4 4 4 3 3 3 2 2 3 4 3 4 4 4 3 3 3 4 4 4 3 2 4 4 5 6 7 9 10 10
4 4 4 5 5 5 6 6 5 3 3 3 3 3 4 4 4 4 2 2 2 3 4 5 5 5 5 4 3 2 2 3 4 4 2 2 4 5 5 5 6 9 10
4 4 4 4 5 5 6 6 5 3 3 3 3 3 4 4 5 4 3 3 3 3 2 2 3 4 3 4 4 3 2 3 3 4 2 1 3 3 4 4 4 6 7
Wind_Direction
121 116 103 105 118 117 104 79 38 33 15 64 77 75 73 87 96 95 99 101 95 67 2 350 336 325 344 355 360 1 351 336 327 325 325 325 327 329 334 329 325 326 326
131 123 110 99 94 105 113 102 89 67 24 39 69 64 60 62 88 97 99 110 111 163 339 343 346 340 356 6 3 358 352 347 342 340 333 321 316 316 318 323 321 318 318
132 128 125 120 114 116 112 86 61 71 75 78 57 49 67 73 75 80 89 110 116 106 94 21 4 358 350 344 341 337 333 329 328 327 327 327 323 314 313 319 324 323 319
132 120 119 112 102 111 113 126 126 92 67 84 67 27 54 76 86 78 76 98 105 99 86 54 10 348 341 339 339 337 332 324 319 319 315 315 313 310 308 309 312 315 318
141 126 119 115 106 106 115 138 120 111 90 69 73 45 25 42 93 99 105 104 100 108 110 96 349 338 331 331 333 336 334 326 319 314 312 310 312 309 306 308 309 309 309
142 127 122 122 112 110 118 121 120 99 104 96 58 31 351 314 136 137 128 99 91 88 87 69 49 349 324 325 323 327 328 326 322 314 309 309 312 311 308 309 310 312 312
146 135 129 128 128 135 142 129 113 106 91 87 68 21 341 312 204 152 118 100 95 80 59 42 40 35 341 319 316 319 320 319 319 315 309 306 305 305 305 303 305 309 311
152 154 149 151 149 145 140 136 125 121 114 97 120 112 353 342 343 299 189 168 137 102 79 49 22 7 345 339 317 316 317 316 314 312 308 304 302 302 300 301 301 305 307
157 154 156 152 156 158 166 162 154 142 158 233 144 144 151 221 303 288 246 201 182 202 137 76 356 324 335 351 351 333 324 320 316 314 312 309 306 302 301 302 303 306 305
161 159 160 158 158 157 166 171 165 156 154 176 268 287 183 173 169 290 303 288 250 250 255 17 10 295 303 333 326 323 322 318 316 314 313 314 310 306 304 305 307 308 307
166 163 165 164 167 167 171 168 161 156 165 170 173 196 307 321 213 197 261 289 308 294 274 244 177 326 302 307 313 316 321 319 316 314 310 309 307 304 304 304 309 313 311
169 167 169 169 171 168 170 174 169 170 178 173 166 152 170 194 242 229 250 273 284 287 285 279 242 268 288 310 306 312 319 322 318 314 311 309 308 304 303 303 305 308 311
181 183 174 172 172 172 172 170 169 178 180 180 181 185 194 215 240 243 240 271 283 286 289 294 276 304 308 294 290 301 306 310 310 310 308 307 307 300 301 301 301 303 307
181 173 173 174 176 175 174 171 176 184 184 184 188 188 195 217 219 226 218 246 293 290 286 279 303 299 319 288 294 307 304 308 306 306 305 305 304 300 298 299 301 303 306
169 169 172 175 180 176 173 171 184 186 181 186 188 193 197 208 209 219 207 184 204 271 282 270 285 299 324 317 318 314 307 312 313 308 309 310 309 307 310 311 310 313 315
167 170 176 179 183 182 179 181 187 190 184 190 189 192 200 211 210 206 205 219 215 232 262 268 279 302 316 313 313 306 305 312 313 308 307 309 311 312 313 312 315 315 314
172 174 178 183 190 192 188 185 189 187 191 192 194 196 202 200 204 214 218 233 245 240 262 284 288 299 312 316 320 309 307 305 302 305 306 308 306 307 309 313 314 316 317
173 170 173 186 192 192 188 185 189 190 192 194 197 195 204 205 207 208 213 237 251 251 256 277 290 298 296 302 313 315 317 313 306 305 309 311 311 311 311 311 312 314 314
174 174 178 189 194 192 191 189 188 188 194 196 194 195 201 193 207 214 218 233 253 274 273 268 281 292 294 301 316 317 317 316 309 302 303 304 305 307 305 305 306 309 310
177 184 184 189 193 193 191 187 184 188 197 200 197 195 197 198 204 205 218 224 238 262 262 269 278 289 292 299 313 315 317 318 312 307 310 304 299 301 301 301 301 303 308
185 186 179 184 184 185 187 186 190 194 197 203 203 200 201 203 213 213 217 213 213 230 247 257 266 283 286 306 305 308 304 312 310 310 315 303 298 298 299 297 297 301 306
180 174 177 180 182 193 198 203 197 191 194 201 204 209 205 204 221 230 231 230 223 220 230 241 257 261 267 275 291 302 307 312 303 315 322 307 301 297 295 290 298 302 304
175 178 182 185 193 203 208 210 210 192 193 203 203 207 219 221 216 208 226 238 244 250 246 240 246 250 255 260 271 281 286 287 280 292 320 300 306 301 300 296 297 300 303
185 187 191 196 195 209 212 216 215 198 195 206 206 205 205 210 217 211 209 226 238 251 252 245 240 248 253 250 244 260 273 289 289 289 286 280 296 296 301 295 293 301 307
197 195 194 198 198 206 207 209 214 198 203 214 213 203 201 207 224 225 209 219 242 265 266 255 258 256 261 270 273 285 288 300 294 290 275 269 289 302 297 288 293 303 308
201 197 201 202 199 204 209 207 205 190 204 216 216 211 218 223 230 228 211 210 232 251 259 275 271 266 263 264 266 243 235 264 282 278 275 288 293 314 306 296 303 311 310
Height
1516 1518 1519 1520 1521 1522 1523 1524 1525 1527 1527 1528 1529 1530 1530 1530 1531 1532 1532 1533 1533 1533 1534 1534 1534 1534 1533 1532 1532 1531 1531 1530 1530 1529 1529 1528 1527 1527 1526 1525 1524 1524 1523
1514 1515 1517 1518 1519 1520 1521 1523 1523 1524 1525 1526 1527 1528 1528 1529 1529 1530 1530 1531 1531 1531 1531 1531 1532 1531 1531 1530 1530 1529 1529 1528 1527 1527 1526 1526 1525 1524 1523 1523 1522 1521 1520
1512 1513 1515 1516 1517 1518 1519 1520 1521 1522 1523 1524 1525 1526 1526 1527 1527 1528 1529 1529 1529 1529 1529 1529 1529 1529 1529 1528 1528 1527 1526 1526 1525 1524 1523 1523 1522 1522 1521 1520 1519 1518 1517
1509 1511 1512 1513 1514 1515 1517 1518 1519 1520 1520 1521 1522 1523 1524 1524 1525 1526 1526 1527 1527 1527 1527 1527 1527 1527 1526 1526 1525 1525 1524 1523 1522 1522 1521 1520 1519 1519 1518 1517 1516 1515 1514
1507 1508 1510 1511 1512 1513 1514 1515 1516 1517 1518 1519 1520 1521 1521 1522 1523 1523 1524 1524 1524 1525 1524 1524 1524 1524 1524 1523 1523 1522 1521 1520 1520 1519 1518 1517 1516 1515 1515 1514 1513 1512 1511
1504 1505 1507 1509 1510 1511 1512 1513 1514 1515 1516 1517 1517 1518 1519 1520 1521 1521 1522 1522 1522 1522 1522 1522 1521 1521 1521 1521 1520 1519 1518 1518 1517 1516 1515 1514 1513 1512 1511 1510 1510 1509 1508
1501 1503 1504 1506 1508 1509 1510 1510 1511 1513 1514 1514 1515 1515 1517 1518 1518 1518 1519 1519 1520 1520 1520 1519 1519 1518 1518 1517 1517 1516 1515 1514 1513 1512 1511 1510 1510 1509 1508 1507 1506 1505 1505
1499 1500 1502 1504 1505 1507 1507 1508 1509 1510 1511 1513 1513 1514 1514 1516 1515 1516 1516 1517 1517 1517 1517 1516 1516 1515 1515 1514 1514 1513 1512 1511 1510 1509 1508 1507 1506 1505 1505 1504 1503 1502 1501
1496 1497 1499 1501 1502 1504 1505 1505 1506 1507 1509 1510 1511 1513 1513 1512 1513 1513 1514 1514 1514 1514 1514 1513 1513 1512 1512 1511 1510 1509 1508 1507 1506 1505 1504 1503 1502 1502 1501 1500 1499 1498 1497
1493 1494 1496 1498 1499 1500 1502 1503 1504 1505 1506 1507 1508 1510 1511 1511 1511 1510 1511 1511 1511 1511 1511 1510 1510 1510 1509 1508 1507 1506 1505 1504 1503 1502 1501 1500 1499 1498 1497 1496 1495 1494 1493
1490 1491 1493 1494 1496 1497 1499 1500 1501 1502 1503 1504 1505 1506 1507 1508 1509 1509 1507 1507 1508 1508 1508 1507 1507 1507 1506 1505 1504 1503 1502 1500 1499 1498 1497 1496 1495 1494 1493 1492 1491 1490 1489
1486 1488 1489 1491 1493 1494 1495 1496 1498 1499 1500 1501 1502 1503 1504 1505 1505 1506 1505 1504 1504 1504 1505 1504 1504 1503 1503 1502 1501 1499 1498 1497 1495 1494 1493 1492 1491 1490 1489 1488 1487 1486 1485
1483 1484 1486 1488 1489 1491 1492 1493 1494 1495 1497 1498 1499 1500 1501 1502 1503 1503 1503 1501 1501 1501 1501 1501 1500 1500 1499 1498 1497 1496 1495 1493 1492 1490 1489 1487 1486 1485 1485 1484 1483 1482 1480
1480 1481 1483 1484 1486 1487 1489 1490 1491 1492 1493 1494 1495 1496 1498 1498 1499 1500 1500 1499 1498 1497 1497 1497 1497 1497 1496 1495 1494 1493 1491 1490 1488 1486 1485 1484 1482 1481 1480 1479 1478 1477 1476
1476 1478 1479 1481 1482 1484 1485 1486 1487 1488 1489 1491 1492 1493 1494 1495 1496 1496 1496 1497 1497 1495 1493 1493 1493 1493 1493 1492 1491 1489 1488 1486 1484 1482 1481 1480 1479 1477 1476 1475 1474 1473 1472
1473 1474 1476 1477 1479 1480 1481 1483 1484 1485 1486 1487 1488 1489 1490 1491 1492 1493 1493 1493 1493 1493 1491 1490 1490 1490 1490 1489 1488 1486 1484 1482 1481 1479 1478 1476 1475 1474 1473 1472 1470 1469 1468
1469 1471 1472 1474 1475 1477 1478 1479 1480 1482 1483 1484 1485 1486 1487 1488 1488 1488 1489 1489 1489 1489 1488 1487 1487 1487 1486 1485 1484 1483 1481 1479 1477 1476 1474 1473 1472 1470 1469 1468 1467 1465 1463
1466 1467 1469 1470 1472 1473 1474 1476 1476 1478 1479 1480 1481 1482 1483 1484 1484 1485 1485 1485 1486 1485 1485 1483 1483 1483 1482 1481 1480 1479 1478 1476 1474 1472 1471 1470 1469 1467 1466 1464 1463 1461 1460
1462 1464 1465 1467 1468 1470 1471 1472 1473 1474 1475 1476 1477 1478 1479 1480 1480 1481 1481 1482 1482 1482 1481 1481 1479 1479 1478 1478 1476 1475 1474 1473 1471 1469 1468 1467 1465 1464 1463 1461 1459 1458 1456
1458 1460 1461 1463 1465 1466 1467 1469 1470 1471 1472 1473 1473 1474 1475 1476 1476 1477 1477 1478 1478 1478 1478 1477 1476 1475 1475 1474 1473 1472 1470 1469 1467 1466 1465 1464 1462 1461 1459 1457 1456 1454 1452
1455 1456 1458 1459 1461 1462 1463 1465 1466 1467 1468 1469 1469 1470 1471 1472 1472 1473 1473 1474 1474 1474 1474 1473 1472 1472 1471 1470 1469 1468 1467 1465 1464 1463 1461 1460 1459 1457 1455 1454 1452 1450 1449
1451 1453 1454 1455 1457 1458 1459 1461 1462 1463 1463 1464 1465 1466 1467 1467 1468 1469 1470 1470 1471 1470 1470 1470 1469 1468 1467 1467 1466 1465 1464 1462 1460 1460 1458 1456 1455 1453 1451 1450 1448 1447 1445
1448 1449 1450 1452 1453 1454 1456 1457 1458 1459 1459 1460 1461 1462 1462 1463 1464 1465 1465 1466 1466 1466 1467 1467 1465 1465 1464 1463 1463 1462 1461 1459 1458 1457 1455 1452 1451 1449 1448 1446 1445 1443 1441
1444 1445 1446 1448 1449 1450 1452 1453 1454 1455 1456 1456 1457 1458 1459 1459 1460 1461 1461 1462 1462 1462 1462 1462 1462 1461 1461 1460 1460 1459 1458 1456 1455 1454 1452 1449 1447 1446 1444 1443 1441 1439 1437
1440 1441 1442 1444 1445 1446 1448 1449 1450 1451 1451 1452 1453 1454 1454 1455 1456 1457 1457 1457 1457 1458 1458 1458 1458 1458 1457 1457 1457 1456 1454 1453 1451 1449 1449 1447 1444 1442 1440 1439 1437 1436 1434
1436 1437 1438 1440 1441 1442 1444 1445 1446 1446 1447 1448 1449 1449 1450 1451 1452 1453 1453 1453 1453 1453 1453 1453 1454 1453 1453 1453 1453 1452 1451 1450 1448 1447 1445 1444 1442 1440 1437 1435 1434 1432 1430